This demonstration page uses our WeatherBlox Daily Observations layout. Learn more.

Left ArrowRight Arrow

30.21309, -93.2044

Hourly Observations for June 14, 2019

Temp ( °F °C ) Dew Point ( °F °C ) Humidity (%) Winds ( mph kmh ) Pressure ( in mb ) Visibility ( mi km ) Precip ( " mm )
12:15 am 00:15 Clear 71 21.5 66 19 86 86 E 8 13 30.06 1018 10 16 0.00 0.00
12:35 am 00:35 Clear 71 21.6 66 18.9 85 85 Calm 30.06 1018 10 16 0.00 0.00
12:55 am 00:55 Clear 70 21.1 65 18.5 85 85 E 12 19 30.06 1018 10 16 0.00 0.00
1:15 am 01:15 Clear 70 21 65 18.6 86 86 E 12 19 30.06 1018 10 16 0.00 0.00
1:35 am 01:35 Clear 69 20.4 65 18.1 87 87 E 9 15 30.06 1018 10 16 0.00 0.00
1:55 am 01:55 Clear 69 20.7 64 18 85 85 Calm 30.05 1018 10 16 0.00 0.00
2:15 am 02:15 Clear 69 20.8 64 17.9 84 84 Calm 30.06 1018 10 16 0.00 0.00
2:35 am 02:35 Clear 69 20.5 64 17.7 84 84 E 5 7 30.05 1018 10 16 0.00 0.00
2:55 am 02:55 Clear 69 20.3 64 17.8 86 86 Calm 30.06 1018 10 16 0.00 0.00
3:15 am 03:15 Clear 69 20.5 64 17.7 84 84 Calm 30.07 1018 10 16 0.00 0.00
3:35 am 03:35 Clear 67 19.7 64 17.8 89 89 Calm 30.06 1018 10 16 0.00 0.00
3:55 am 03:55 Clear 67 19.5 63 17.3 87 87 E 5 7 30.06 1018 10 16 0.00 0.00
4:15 am 04:15 Clear 68 19.9 63 17.2 85 85 ENE 3 6 30.07 1018 10 16 0.00 0.00
4:35 am 04:35 Clear 69 20.4 63 17 81 81 Calm 30.07 1018 10 16 0.00 0.00
4:55 am 04:55 Clear 69 20.4 62 16.9 80 80 ENE 3 6 30.07 1018 10 16 0.00 0.00
5:15 am 05:15 Clear 66 19.1 62 16.8 87 87 E 3 6 30.07 1018 10 16 0.00 0.00
5:35 am 05:35 Clear 67 19.5 62 16.6 83 83 Calm 30.07 1018 10 16 0.00 0.00
6:00 am 06:00 Mostly Clear 68 20 61 16 78 78 Calm 30.07 1018 10 16 0.00 0.00
6:55 am 06:55 Mostly Sunny 68 20 63 17 83 83 Calm 30.08 1019 10 16 0.00 0.00
7:45 am 07:45 Mostly Sunny 72 22 64 18 78 78 Calm 30.09 1019 10 16 0.00 0.00
8:47 am 08:47 Mostly Sunny 75 24 63 17 65 65 E 8 13 30.10 1019 10 16 0.00 0.00
9:45 am 09:45 Mostly Sunny 79 26 66 19 65 65 E 12 19 30.10 1019 10 16 0.00 0.00
10:55 am 10:55 Mostly Sunny 84 29 68 20 58 58 ESE 8 13 30.09 1019 10 16 0.00 0.00
11:45 am 11:45 Mostly Sunny 86 30 66 19 52 52 ESE 6 9 30.09 1019 10 16 0.00 0.00
12:55 pm 12:55 Partly Cloudy 88 31 66 19 49 49 SSE 12 19 30.08 1019 10 16 0.00 0.00
1:45 pm 13:45 Partly Cloudy 88 31 68 20 52 52 SSE 8 13 30.06 1018 10 16 0.00 0.00
2:50 pm 14:50 Mostly Cloudy 88 31 68 20 52 52 S 9 15 30.05 1018 10 16 0.00 0.00
3:55 pm 15:55 Mostly Cloudy 86 30 66 19 52 52 SSE 12 19 30.02 1017 10 16 0.00 0.00
4:55 pm 16:55 Mostly Cloudy 88 31 68 20 52 52 SSE 16 26 30.01 1016 10 16 0.00 0.00
5:50 pm 17:50 Partly Cloudy 86 30 68 20 55 55 SSE 14 22 30.00 1016 10 16 0.00 0.00
6:55 pm 18:55 Partly Cloudy 84 29 68 20 58 58 S 12 19 29.99 1016 10 16 0.00 0.00
7:50 pm 19:50 Mostly Sunny 81 27 70 21 70 70 SSE 8 13 29.99 1016 10 16 0.00 0.00
8:55 pm 20:55 Mostly Clear 75 24 70 21 83 83 SSE 6 9 29.99 1016 10 16 0.00 0.00
9:50 pm 21:50 Mostly Clear 73 23 70 21 89 89 SSE 5 7 29.99 1016 10 16 0.00 0.00
10:15 pm 22:15 Clear 73 22.8 70 21.1 90 90 SE 5 7 30.00 1016 10 16 0.00 0.00
10:35 pm 22:35 Clear 74 23.1 70 20.9 87 87 SSE 3 6 30.01 1016 10 16 0.00 0.00
10:55 pm 22:55 Clear 73 22.8 70 21 90 90 SE 5 7 30.01 1016 10 16 0.00 0.00
11:15 pm 23:15 Clear 74 23.4 70 21.1 87 87 E 3 6 30.01 1016 10 16 0.00 0.00
11:35 pm 23:35 Clear 74 23.1 70 21.1 89 89 E 5 7 30.01 1016 10 16 0.00 0.00
11:55 pm 23:55 Mostly Cloudy 73 23 71 21.5 91 91 E 7 11 30.01 1016 10 16 0.00 0.00

Powered by AerisWeather